Terminal Aerodrome Forecast
Issued by NWS Dodge City, KS

Home | Current Version | Previous Version | Graphics & Text | Print | Product List | Glossary Off
Versions: 1 2 3 4 5 6 7 8 9 10 11 12 13 14 15 16

000
FTUS43 KDDC 162300
TAFDDC
TAF
KDDC 162320Z 1700/1724 36013G20KT P6SM FEW150 BKN250
     FM170800 03010KT P6SM OVC060
     FM171000 02012KT 6SM -SHRA BKN050
     FM171700 09009KT P6SM OVC100=

USA.gov is the U.S. government's official web portal to all federal, state and local government web resources and services.